This demonstration page uses our WeatherBlox Daily Observations layout. Learn more.

Left ArrowRight Arrow

Hourly Observations for April 7, 2022

Temp ( °F °C ) Dew Point ( °F °C ) Humidity (%) Winds ( mph kmh ) Pressure ( in mb ) Visibility ( mi km ) Precip ( " mm )
12:53 am 00:53 Partly Cloudy 44 6.7 28 -2.2 53 53 NW 25 41 30.00 1016 10 16 0.00 0.00
1:53 am 01:53 Partly Cloudy 43 6.1 28 -2.2 56 56 NNW 25 41 30.01 1016 10 16 0.00 0.00
2:53 am 02:53 Mostly Clear 42 5.6 26 -3.3 53 53 NW 22 35 30.01 1016 10 16 0.00 0.00
3:53 am 03:53 Clear 39 3.9 29 -1.7 67 67 NW 21 33 30.02 1017 10 16 0.00 0.00
4:53 am 04:53 Clear 38 3.3 28 -2.2 68 68 NW 21 33 30.01 1016 10 16 0.00 0.00
5:53 am 05:53 Cloudy 40 4.4 29 -1.7 65 65 NW 26 43 30.00 1016 10 16 0.00 0.00
6:53 am 06:53 Mostly Cloudy 38 3.3 28 -2.2 68 68 NW 23 37 30.01 1016 10 16 0.00 0.00
7:53 am 07:53 Sunny 38 3.3 28 -2.2 68 68 NW 29 46 30.01 1016 10 16 0.00 0.00
8:53 am 08:53 Mostly Cloudy 43 6.1 26 -3.3 51 51 NW 33 54 30.01 1016 10 16 0.00 0.00
9:53 am 09:53 Partly Cloudy 45 7.2 24 -4.4 44 44 NNW 30 48 30.01 1016 10 16 0.00 0.00
10:53 am 10:53 Mostly Cloudy with Haze 45 7.2 18 -7.8 34 34 NNW 41 67 30.04 1017 6 10 0.00 0.00
11:53 am 11:53 Cloudy 45 7.2 22 -5.6 40 40 NNW 38 61 30.04 1017 10 16 0.00 0.00
12:53 pm 12:53 Cloudy 44 6.7 23 -5 43 43 NNW 39 63 30.05 1018 10 16 0.00 0.00
1:53 pm 13:53 Cloudy with Light Rain 42 5.6 25 -3.9 51 51 NNW 38 61 30.05 1018 8 13 0.00 0.00
2:53 pm 14:53 Cloudy 45 7.2 24 -4.4 44 44 NNW 40 65 30.05 1018 10 16 0.00 0.00
3:53 pm 15:53 Cloudy 44 6.7 26 -3.3 49 49 NNW 38 61 30.07 1018 10 16 0.00 0.00
4:53 pm 16:53 Mostly Cloudy 44 6.7 29 -1.7 55 55 NNW 31 50 30.07 1018 10 16 0.00 0.00
5:53 pm 17:53 Mostly Cloudy 43 6.1 30 -1.1 60 60 NNW 31 50 30.07 1018 10 16 0.00 0.00
6:53 pm 18:53 Cloudy 42 5.6 29 -1.7 60 60 NNW 39 63 30.10 1019 10 16 0.00 0.00
7:53 pm 19:53 Mostly Sunny 40 4.4 28 -2.2 63 63 NNW 29 46 30.11 1020 10 16 0.00 0.00
8:53 pm 20:53 Partly Cloudy 40 4.4 28 -2.2 63 63 NNW 26 43 30.11 1020 10 16 0.00 0.00
9:53 pm 21:53 Clear 40 4.4 28 -2.2 63 63 NNW 23 37 30.12 1020 10 16 0.00 0.00
10:53 pm 22:53 Partly Cloudy 41 5 24 -4.4 51 51 NNW 20 31 30.10 1019 10 16 0.00 0.00
11:53 pm 23:53 Partly Cloudy 42 5.6 22 -5.6 45 45 NNW 25 41 30.09 1019 10 16 0.00 0.00

Powered by AerisWeather